Location: Smithers
(54.7670°N, 127.1670°W)
Time: 02:30:26
(UTC-08:00)

Daily predictions for brighter satellites

Satellite Brightness Start Highest point End
(mag) Time Altitude Azimuth Time Altitude Azimuth Time Altitude Azimuth
CZ-4C R/B 4.4 03:24:55 24° NE 03:24:55 24° NE 03:27:33 10° NE
Cosmos 2237 Rocket 4.2 03:52:11 23° NE 03:52:11 23° NE 03:54:23 10° NE
Cosmos 2369 Rocket 3.6 04:10:40 34° ENE 04:10:40 34° ENE 04:14:48 10° ESE
CENTAUR R/B 3.3 04:14:51 48° ESE 04:14:51 48° ESE 04:21:13 10° NE
ATLAS 5 CENTAUR R/B 3.9 04:20:03 26° NNE 04:20:03 26° NNE 04:22:59 10° NE
USA 238 DEB 4.4 04:22:44 45° NNE 04:22:44 45° NNE 04:28:08 10° NE
USA 238 4.4 04:22:50 45° NNE 04:22:50 45° NNE 04:28:14 10° NE
Cosmos 2219 Rocket 3.7 04:26:02 28° NNE 04:26:02 28° NNE 04:28:41 10° NNE
Lacrosse 4 Rocket 4.0 04:33:41 18° ENE 04:33:41 18° ENE 04:35:21 10° E
COSMOS 2455 4.4 04:34:13 26° NNE 04:34:13 26° NNE 04:37:41 10° NE
ATLAS 3B R/B 3.5 04:34:49 43° N 04:34:49 43° N 04:40:53 10° ENE
Lacrosse 5 rocket 3.7 04:42:30 23° ENE 04:42:30 23° ENE 04:44:14 10° ENE
Cosmos 2333 Rocket 3.3 04:46:13 36° NNE 04:46:13 36° NNE 04:49:34 10° NNE
NOSS 0 Rocket 4.3 04:50:51 55° NNE 04:50:51 55° NNE 04:55:44 10° NE
Cosmos 1943 Rocket 3.3 04:50:35 35° NNE 04:51:29 37° NE 04:56:36 10° ESE
NOSS 3-2 (C) 3.8 04:52:27 60° N 04:52:27 60° N 04:58:54 10° NE
SL-16 R/B 2.2 05:03:59 74° SE 05:04:07 75° ESE 05:09:49 10° NE
ADEOS Rocket 3.9 04:58:53 10° N 05:02:05 34° N 05:02:05 34° N
CZ-4C R/B 3.3 05:10:06 38° NNW 05:10:46 39° N 05:17:20 10° ENE
Meteor 1-14 Rocket 4.4 05:12:17 57° N 05:12:17 57° N 05:16:42 10° NNE
Cosmos 2322 Rocket 4.1 05:12:33 17° N 05:12:33 17° N 05:15:29 10° NNE
Cosmos 2360 Rocket 3.9 05:14:02 20° N 05:14:02 20° N 05:16:47 10° NNE
Cosmos 2056 Rocket 4.3 05:14:22 38° S 05:14:22 38° S 05:17:31 10° SSE
Cosmos 1980 Rocket 4.2 05:14:34 15° N 05:14:51 15° N 05:18:04 10° NE
ADEOS II 2.6 05:09:55 10° NNE 05:13:47 50° N 05:13:47 50° N
COSMOS 2428 4.1 05:18:09 26° N 05:18:09 26° N 05:21:32 10° NNE
NOSS 3-2 (A) 3.9 05:16:33 50° NNW 05:16:55 50° NNW 05:23:56 10° NE
Cosmos 2263 4.4 05:16:25 53° N 05:17:36 67° NE 05:23:12 10° SE
Cosmos 2074 Rocket 4.1 05:11:35 10° S 05:17:50 77° E 05:24:07 10° NNE
SKYMED 2 4.4 05:16:04 10° SSE 05:19:09 45° SSE 05:19:09 45° SSE
Meteor 1-25 Rocket 4.2 05:17:08 10° S 05:22:59 86° ESE 05:28:49 10° NNE
Meteor 1-28 Rocket 4.2 05:20:43 10° SE 05:24:18 45° ENE 05:24:18 45° ENE
Meteor 1-13 Rocket 4.2 05:25:51 29° NNW 05:29:08 90° WSW 05:35:07 10° SSE
Cosmos 923 Rocket 4.1 05:32:42 61° NNW 05:32:42 61° NNW 05:37:26 10° NNE
Cosmos 2237 Rocket 2.7 05:34:01 41° NNW 05:34:01 41° NNW 05:38:35 10° NNE
Cosmos 2184 Rocket 3.9 05:28:53 10° S 05:35:04 88° WNW 05:41:21 10° N
DMSP B5D1-3 4.5 05:30:55 10° SSE 05:36:05 87° ENE 05:38:20 36° NNW
CZ-4B R/B 4.0 05:32:26 10° N 05:36:00 35° NNW 05:36:00 35° NNW
Cosmos 1025 Rocket 3.5 05:37:37 29° N 05:39:42 59° ENE 05:44:02 10° SSE
SL-16 R/B 4.1 05:40:11 16° NNW 05:40:33 16° N 05:43:59 10° NNE
USA 215 4.5 05:36:40 10° ENE 05:42:41 38° SE 05:48:42 10° SSW
Meteor 2-4 Rocket 3.7 05:42:47 16° NNW 05:47:11 80° ENE 05:52:48 10° SSE
Cosmos 2154 Rocket 4.2 05:44:44 10° S 05:50:54 71° E 05:57:05 10° NNE
CZ-4 R/B 4.1 05:48:01 10° NE 05:51:01 20° E 05:53:59 10° SE
Okean-O 3.6 05:47:19 10° N 05:49:57 33° N 05:49:57 33° N
Cosmos 2369 Rocket 2.2 05:52:29 47° WNW 05:53:51 61° WSW 05:59:27 10° SSE
Lacrosse 5 3.5 05:54:25 10° SSW 05:58:57 33° SE 06:03:30 10° ENE
Cosmos 1900 4.2 05:58:04 54° WNW 05:58:59 67° SW 06:03:52 10° SSE
Cosmos 1680 Rocket 3.6 05:58:44 49° W 05:59:26 52° NW 06:04:33 10° NNE
Cosmos 1536 3.6 05:55:43 10° S 05:59:36 52° E 06:03:33 10° NNE
DNEPR-1 R/B 4.4 05:55:01 13° SW 06:01:06 81° SE 06:06:39 10° NE
Cosmos 1452 Rocket 3.4 05:59:54 41° NW 06:01:40 66° WSW 06:06:53 10° SSE
Cosmos 292 Rocket 3.8 06:01:29 51° WNW 06:01:54 53° WNW 06:06:38 10° NNE
Cosmos 1603 3.8 05:56:19 10° SSW 06:02:00 80° ESE 06:07:42 10° NE
Okean 1 Rocket 3.0 05:57:39 10° S 06:02:03 82° E 06:06:27 10° NNE
ATLAS 5 CENTAUR R/B 3.1 06:01:36 28° NNW 06:03:33 36° N 06:09:03 10° ENE
CENTAUR R/B 2.7 06:02:04 35° W 06:05:01 65° NNW 06:12:25 10° NE
SL-24 DEB 4.3 06:01:25 10° S 06:06:13 87° E 06:11:04 10° N
Cosmos 2219 Rocket 3.3 06:07:47 26° NNW 06:07:51 26° NNW 06:12:33 10° NNE
COSMO-SKYMED 1 3.2 06:04:26 10° S 06:07:43 37° SW 06:07:43 37° SW
Feng Yun 1-1 Rocket 4.3 06:04:09 10° N 06:09:40 53° WNW 06:15:01 10° SW
Lacrosse 4 Rocket 1.4 06:10:03 42° NNW 06:11:25 79° NE 06:15:32 10° SE
Cosmos 1610 Rocket 4.4 06:05:44 10° SSW 06:11:54 70° WNW 06:18:14 10° N
USA 238 DEB 4.4 06:10:11 27° NW 06:13:30 42° N 06:20:10 10° ENE
USA 238 4.4 06:10:17 27° NW 06:13:36 42° N 06:20:16 10° ENE
CZ-4B R/B 4.4 06:10:08 10° N 06:14:25 45° WNW 06:15:29 38° WSW
Okean 1-7 Rocket 3.7 06:13:49 44° WNW 06:14:28 49° W 06:18:42 10° SSW
GRACE-2 4.5 06:16:30 28° NNE 06:17:44 56° E 06:20:30 10° SSE
GRACE-1 4.4 06:16:58 29° NNE 06:18:10 58° E 06:20:55 10° SSE
NOAA 6 4.0 06:14:13 10° N 06:19:17 63° WNW 06:24:21 10° SSW
Lacrosse 5 rocket 1.5 06:18:13 44° WNW 06:19:23 64° N 06:23:48 10° E
Cosmos 2112 Rocket 4.3 06:17:47 33° W 06:19:28 44° NW 06:24:28 10° NNE
COSMOS 2455 4.2 06:17:22 19° NNW 06:19:59 26° N 06:24:57 10° ENE
Cosmos 1892 Rocket 3.6 06:17:52 12° N 06:22:02 86° E 06:26:31 10° SSE
Meteor 1-20 Rocket 4.4 06:18:12 10° SW 06:23:26 42° WNW 06:28:40 10° N
Cosmos 1943 3.7 06:20:25 10° SSW 06:25:57 62° ESE 06:31:34 10° NE
ATLAS 3B R/B 3.4 06:22:04 22° NW 06:26:23 45° NNE 06:32:55 10° E
Cosmos 1300 Rocket 3.7 06:23:50 10° SSW 06:28:08 49° WNW 06:32:25 10° N
Cosmos 1633 2.5 06:24:36 10° SSW 06:28:12 56° WNW 06:31:47 10° N
CSL-04 DEB 4.3 06:24:12 10° NNE 06:28:15 85° WNW 06:32:23 10° SSW
Cosmos 2333 Rocket 3.3 06:28:14 23° NW 06:29:10 24° NNW 06:33:46 10° NNE
Cosmos 1943 Rocket 2.2 06:32:08 23° NW 06:35:33 59° WSW 06:40:56 10° SSE
Cosmos 1626 Rocket 4.5 06:31:15 10° N 06:35:37 49° ENE 06:39:55 10° SSE
Nadezhda 3 Rocket 4.4 06:30:55 10° NNW 06:36:49 42° W 06:42:44 10° SSW
Cosmos 839 Rocket 4.2 06:34:18 21° NW 06:38:59 60° WSW 06:45:02 10° SSE
Cosmos 2218 Rocket 4.4 06:34:49 10° S 06:41:10 68° E 06:47:31 10° NNE
Helios 1B rocket 2.4 06:39:02 10° SSE 06:43:12 82° WSW 06:47:24 10° NNW
NOSS 3-2 (C) 4.3 06:39:54 22° WNW 06:43:55 42° N 06:50:55 10° ENE
Cosmos 1602 4.2 06:40:27 10° SW 06:44:10 38° WNW 06:47:55 10° N
Cosmos 1295 Rocket 4.4 06:39:39 10° SSW 06:45:57 83° W 06:52:13 10° N
SL-16 R/B 2.9 06:45:55 21° W 06:48:47 33° NW 06:53:53 10° NNE
ADEOS Rocket 4.4 06:45:45 10° N 06:49:03 16° NW 06:49:03 16° NW
SMAP 3.8 06:45:08 10° NNE 06:49:45 55° E 06:54:19 10° S
Cosmos 405 Rocket 3.9 06:50:09 10° N 06:53:52 42° ENE 06:57:29 10° SE
ADEOS II 3.3 06:50:35 10° N 06:54:15 19° NW 06:54:43 19° WNW
Cosmos 1455 Rocket 3.5 06:50:09 10° S 06:54:26 64° E 06:58:46 10° NNE
Cosmos 44 3.9 06:49:19 10° SSW 06:54:35 66° SE 06:59:38 10° NE
Cosmos 1420 Rocket 4.4 06:52:00 17° NW 06:55:40 42° WSW 07:00:33 10° S
Cosmos 2322 Rocket 4.1 06:54:28 10° NNW 06:58:10 17° NNE 07:01:51 10° NE
Cosmos 1727 Rocket 3.9 06:52:00 10° NNW 06:58:13 80° W 07:04:24 10° S
Cosmos 2360 Rocket 4.1 06:55:48 11° NNW 06:58:36 15° N 07:01:52 10° NE
Meteor 1-28 Rocket 4.4 06:55:39 10° SW 06:58:40 22° W 06:59:18 21° WNW
Cosmos 1656 Rocket 3.7 06:54:56 13° NW 06:59:59 76° WSW 07:05:39 10° SSE
CZ-4C R/B 3.1 06:55:17 16° NW 07:00:32 56° NNE 07:07:50 10° ESE
Cosmos 1980 Rocket 3.9 06:56:40 10° NNW 07:01:02 22° NNE 07:05:23 10° ENE
Cosmos 1066 Rocket 4.3 06:56:37 10° NNW 07:02:02 78° ENE 07:07:29 10° SSE
COSMOS 2428 4.4 07:00:11 13° NW 07:02:41 17° N 07:06:18 10° NNE
SPOT 3 Rocket 4.0 06:58:43 10° NNE 07:03:53 67° ESE 07:09:00 10° S
Cosmos 1340 3.4 07:02:23 17° NW 07:04:46 33° W 07:08:11 10° SSW
USA 229 DEB 4.4 06:58:03 10° SSW 07:04:47 58° SE 07:11:38 10° NE
USA 229 4.4 06:58:10 10° SSW 07:04:53 58° SE 07:11:44 10° NE
Ariane Rocket 3.2 07:01:06 10° N 07:05:57 47° WNW 07:10:47 10° SW
Meteor 1-29 3.0 07:04:36 10° S 07:07:54 54° WSW 07:11:15 10° NNW
NOSS 3-2 (A) 4.4 07:03:57 16° WNW 07:09:11 43° N 07:16:18 10° ENE
Meteor 1-11 Rocket 4.1 07:03:50 10° SW 07:09:19 42° WNW 07:14:43 10° N
Cosmos 2341 Rocket 4.2 07:03:23 10° SW 07:09:28 50° WNW 07:15:32 10° N
Okean 2 4.2 07:08:24 12° NNW 07:11:48 31° W 07:15:28 10° SSW
Cosmos 1331 Rocket 4.0 07:08:00 10° NNW 07:13:14 88° WSW 07:18:24 10° SSE
Cosmos 1025 Rocket 4.3 07:14:34 14° NW 07:16:56 21° W 07:20:10 10° SW
Cosmos 1048 Rocket 4.3 07:11:52 10° SSW 07:17:00 73° ESE 07:22:14 10° NNE
Cosmos 1867 3.7 07:12:25 13° NW 07:17:25 74° NE 07:22:52 10° SE
Cosmos 2237 Rocket 3.7 07:15:53 14° NW 07:18:43 19° NNW 07:22:41 10° NNE
CZ-2C R/B 2.5 07:13:29 10° NNE 07:18:44 86° WNW 07:23:51 10° SSW
CSL-04 Rocket 3.9 07:14:09 10° N 07:19:29 49° WNW 07:24:48 10° SW
YAOGAN 1 2.6 07:15:16 10° NNE 07:19:39 88° W 07:23:59 10° SSW
CSL-04 Debris 4.3 07:19:00 10° N 07:24:16 51° WNW 07:29:33 10° SW
Cosmos 1437 4.4 07:23:08 10° N 07:26:11 33° ENE 07:29:12 10° SE
USA 215 3.4 07:19:43 10° ENE 07:26:17 81° SSE 07:32:51 10° WSW
CZ-4 R/B 1.4 07:22:29 10° N 07:26:24 53° WNW 07:30:13 10° SW
SL-16 R/B 4.0 07:22:56 10° NNW 07:26:58 19° NNE 07:31:00 10° ENE
Okean-O 4.5 07:25:44 10° NNW 07:27:16 12° NW 07:27:32 12° NW
IDEFIX/ARIANE 42P 2.5 07:22:53 10° NNE 07:28:06 78° WNW 07:33:17 10° SSW
Cosmos 864 Rocket 4.4 07:24:17 10° SSW 07:30:26 72° WNW 07:36:40 10° N
Cosmos 1602 Rocket 3.7 07:26:46 10° NNW 07:31:10 56° W 07:35:32 10° S
SL-27 R/B 3.8 07:31:03 10° S 07:34:29 46° ESE 07:38:01 10° NE
Cosmos 1697 Rocket 3.8 07:29:16 10° NNW 07:34:33 38° NE 07:39:48 10° ESE
Cosmos 1484 Rocket 2.9 07:32:25 10° NNE 07:36:13 77° ESE 07:40:01 10° S
Cosmos 1536 4.0 07:33:17 10° WSW 07:36:23 21° WNW 07:39:31 10° NNW
Cosmos 2369 Rocket 4.0 07:34:20 10° WNW 07:36:45 13° W 07:39:11 10° WSW
COSMOS 2406 4.2 07:31:53 10° S 07:37:22 54° ESE 07:42:55 10° NE
Cosmos 44 Rocket 3.5 07:32:46 10° WSW 07:37:50 55° NW 07:42:48 10° NE
SJ-12 4.2 07:34:05 10° N 07:38:06 47° WNW 07:42:07 10° SW
Cosmos 1441 Rocket 4.1 07:34:22 10° N 07:38:18 52° ENE 07:42:10 10° SSE
Okean 1 Rocket 4.5 07:37:43 10° W 07:40:35 17° WNW 07:43:27 10° NNW
Lacrosse 5 2.0 07:36:25 10° WSW 07:41:33 86° SSE 07:46:41 10° ENE
Cosmos 1544 Rocket 4.0 07:38:59 10° SW 07:43:06 40° WNW 07:47:17 10° N
AQUARIUS 4.3 07:41:05 10° N 07:45:27 51° WNW 07:49:49 10° SW
Meteor 1-21 4.3 07:39:50 10° NNW 07:45:29 88° WSW 07:51:09 10° S
CORIOLIS 4.1 07:40:43 10° NNE 07:46:04 70° WNW 07:51:23 10° SSW
Cosmos 1603 4.5 07:41:43 10° W 07:46:45 31° NW 07:51:45 10° NNE
Cosmos 2369 4.0 07:41:22 10° NNW 07:47:04 71° NE 07:52:43 10° SE
Cosmos 1953 Rocket 4.0 07:44:26 10° N 07:48:51 66° ENE 07:53:15 10° SSE
Cosmos 1110 Rocket 4.4 07:43:58 10° NW 07:48:59 45° WSW 07:53:56 10° S
ATLAS 5 CENTAUR R/B 2.6 07:43:29 10° NW 07:49:08 67° NNE 07:55:20 10° ESE
Lacrosse 4 Rocket 3.1 07:46:46 10° WNW 07:49:36 18° WSW 07:52:23 10° SSW
MONITOR-E 4.4 07:46:56 10° N 07:50:05 53° WNW 07:53:13 10° SSW
Cosmos 1758 Rocket 4.1 07:46:17 10° N 07:50:42 63° ENE 07:55:01 10° SSE
Resurs 01 Rocket 3.9 07:48:15 10° NE 07:52:06 28° E 07:55:55 10° SSE
Cosmos 2219 Rocket 3.9 07:50:31 10° NW 07:53:52 16° N 07:57:13 10° NNE
Cosmos 1656 4.2 07:50:59 10° NNW 07:56:34 58° NE 08:02:10 10° SE
CENTAUR R/B 3.4 07:50:21 10° WNW 07:56:54 43° N 08:04:15 10° ENE
Meteor 1-12 Rocket 4.3 07:51:42 10° SSW 07:57:17 63° WNW 08:02:56 10° N
